{"data":{"norad_id":66944,"epoch":"2026-05-25T00:47:13.024896Z","epoch_age_seconds":82369,"freshness":"FRESH","line1":"1 66944U 25286V   26145.03278964  .00017695  00000+0  53339-3 0  9992","line2":"2 66944  53.1597   3.2487 0000945  90.5116 269.5995 15.34412407 27112","mean_motion":15.34412407,"eccentricity":9.45e-5,"inclination_deg":53.1597,"raan_deg":3.2487,"arg_perigee_deg":90.5116,"mean_anomaly_deg":269.5995,"bstar":0.00053339,"rev_number":2711,"period_min":93.846999244187,"perigee_km":462.01990831901,"apogee_km":463.31282015485,"semimajor_km":6840.8033642369,"source":"CELESTRAK","updated_at":"2026-05-25T13:38:21.389656Z"}}